FALCON 9 DEB (53442 NORAD) Tracking and Keplerian Element Data

This shows tracking and keplerian element data for the satellite.

Feedback or suggestion? Click here.




ElementValue
Catalog53442
NameFALCON 9 DEB
Epoch Orbit326
Epoch Day242.13713311
Epoch Year2022
RAAN144.8319
Inclination53.214
Eccentricity0.0011388
Argument of Perigee139.3457
Mean Anonmoly220.8444
Mean Motion16.38129109
Decay Rate0.05540786
L11 53442U 22097BG 22242.13713311 .05540786 12197-4 49071-3 0 9993
L22 53442 53.2140 144.8319 0011388 139.3457 220.8444 16.38129109 3263

Live tracking and technical data element details for FALCON 9 DEB (NORAD 53442). FALCON 9 DEB can be tracked NOW for your location showing map with azimuth and elevation plus other details from your city location.

Track the satellite on the map from your city or location and see movement details for azimuth, elevation, latitude, longitude, range, height, and movement on the map or in text.







IsCatalogInMostPopularTable: catalog: 53442, numindb: 3
Update: records affected: 1



GetName: 53442 FALCON 9 DEB

Hit Count: updated at: Fri, 30 Sep 2022 04:20:42 GMT